Weather History for KMRB - February, 2015

Change the Weather History Date:

Monday, February 2, 2015

  Actual Average Record
Temperature  
Mean Temperature 35 °F 32 °F  
Max Temperature 47 °F 41 °F 68 °F (1967)
Min Temperature 23 °F 23 °F -7 °F (1961)
Degree Days  
Heating Degree Days 30 33  
Month to date heating degree days 64 66  
Since 1 July heating degree days 2902 3149  
Cooling Degree Days 0 0  
Month to date cooling degree days 0 0  
Year to date cooling degree days 0 0  
Moisture  
Dew Point 23 °F    
Average Humidity 66    
Maximum Humidity 89    
Minimum Humidity 42    
Precipitation  
Precipitation 0.08 in 0.09 in 1.02 in (1956)
Month to date precipitation 0.16 0.17  
Year to date precipitation 2.22 2.61  
Sea Level Pressure  
Sea Level Pressure 29.67 in    
Wind  
Wind Speed 13 mph (NW)    
Max Wind Speed 36 mph    
Max Gust Speed 48 mph    
Visibility 7 miles    
Events Rain    
T = Trace of Precipitation, MM = Missing Value Source: NWS Daily Summary

Daily Weather History Graph

Daily Weather History Graph

Search for Another Location

Airport or City:

Trip Planner

Search our weather history database for the weather conditions in past years. The results will help you decide how hot, cold, wet, or windy it might be!

Date:

Astronomy

Feb. 02, 2015 Rise Set
Actual Time 7:18 AM EST 5:33 PM EST
Civil Twilight 6:50 AM EST 6:01 PM EST
Nautical Twilight 6:18 AM EST 6:33 PM EST
Astronomical Twilight 5:46 AM EST 7:05 PM EST
Moon 4:43 PM EST (2/2) 6:07 AM EST (2/2)
Length of Visible Light 11h 11m
Length of Day
10h 14m
Waxing Gibbous, 99% of the Moon is Illuminated
Feb 2
Waxing Gibbous
Feb 3
Full
Feb 11
Last Quarter
Feb 18
New
Feb 25
First Quarter

Hourly Weather History & Observations

Time (EST) Temp. Windchill Dew Point Humidity Pressure Visibility Wind Dir Wind Speed Gust Speed Precip Events Conditions
12:53 AM 34.0 °F 31.0 °F 30.0 °F 85% 29.70 in 9.0 mi SSE 3.5 mph - 0.04 in Rain Light Rain
1:53 AM 35.1 °F 31.0 °F 30.9 °F 85% 29.64 in 10.0 mi SE 4.6 mph - 0.00 in   Overcast
2:53 AM 35.1 °F - 30.9 °F 85% 29.58 in 10.0 mi Calm Calm - N/A   Overcast
3:53 AM 35.1 °F 32.2 °F 30.9 °F 85% 29.54 in 8.0 mi WNW 3.5 mph - N/A   Overcast
4:53 AM 35.1 °F - 32.0 °F 89% 29.49 in 7.0 mi Calm Calm - N/A   Overcast
5:34 AM 35.1 °F 31.0 °F 32.0 °F 89% 29.45 in 6.0 mi North 4.6 mph - N/A   Overcast
5:53 AM 35.1 °F 31.0 °F 32.0 °F 89% 29.45 in 4.0 mi NNW 4.6 mph - N/A   Overcast
6:53 AM 35.1 °F 32.2 °F 30.9 °F 85% 29.44 in 4.0 mi NNW 3.5 mph - 0.01 in   Overcast
7:50 AM 35.6 °F 31.7 °F 32.0 °F 87% 29.45 in 2.0 mi East 4.6 mph - 0.02 in Rain Light Rain
7:53 AM 35.1 °F 31.0 °F 32.0 °F 89% 29.46 in 2.0 mi ESE 4.6 mph - 0.02 in Rain Light Rain
8:53 AM 36.0 °F 33.3 °F 33.1 °F 89% 29.49 in 1.8 mi ENE 3.5 mph - 0.01 in   Overcast
9:00 AM 36.0 °F 31.1 °F 33.1 °F 89% 29.47 in 2.0 mi NNE 5.8 mph - N/A   Overcast
9:53 AM 37.0 °F 32.4 °F 33.1 °F 86% 29.51 in 2.0 mi SE 5.8 mph - N/A   Overcast
10:01 AM 37.0 °F 33.3 °F 34.0 °F 89% 29.48 in 1.8 mi ESE 4.6 mph - N/A   Overcast
10:11 AM 39.9 °F - 34.0 °F 79% 29.48 in 3.0 mi Calm Calm - N/A   Haze
10:53 AM 45.0 °F 39.7 °F 30.9 °F 58% 29.50 in 10.0 mi West 10.4 mph 23.0 mph N/A   Overcast
11:53 AM 46.0 °F 38.5 °F 28.9 °F 51% 29.49 in 10.0 mi WNW 19.6 mph 32.2 mph N/A   Mostly Cloudy
12:53 PM 43.0 °F 32.2 °F 25.0 °F 49% 29.50 in 10.0 mi WNW 32.2 mph 44.9 mph N/A   Mostly Cloudy
1:53 PM 37.0 °F 24.5 °F 19.0 °F 48% 29.58 in 10.0 mi WNW 29.9 mph 47.2 mph N/A   Clear
2:53 PM 32.0 °F 18.6 °F 14.0 °F 48% 29.67 in 10.0 mi NW 25.3 mph 35.7 mph N/A   Mostly Cloudy
3:53 PM 28.9 °F 15.4 °F 10.9 °F 47% 29.78 in 10.0 mi WNW 21.9 mph 44.9 mph N/A   Overcast
4:53 PM 28.0 °F 14.9 °F 9.0 °F 45% 29.85 in 10.0 mi WNW 19.6 mph 31.1 mph N/A   Mostly Cloudy
5:53 PM 26.1 °F 15.0 °F 10.0 °F 51% 29.93 in 10.0 mi NW 12.7 mph 26.5 mph N/A   Overcast
6:53 PM 25.0 °F 12.2 °F 9.0 °F 51% 29.99 in 10.0 mi WNW 16.1 mph 26.5 mph N/A   Overcast
7:53 PM 25.0 °F 10.9 °F 9.0 °F 51% 30.01 in 10.0 mi WNW 19.6 mph 25.3 mph N/A   Mostly Cloudy
8:53 PM 24.1 °F 11.0 °F 8.1 °F 51% 30.06 in 10.0 mi WNW 16.1 mph - N/A   Clear
9:53 PM 24.1 °F 10.6 °F 7.0 °F 48% 30.08 in 10.0 mi WNW 17.3 mph - N/A   Clear
10:53 PM 24.1 °F 12.5 °F 6.1 °F 46% 30.12 in 10.0 mi NW 12.7 mph - N/A   Clear
11:53 PM 23.0 °F 10.6 °F 7.0 °F 50% 30.15 in 10.0 mi WNW 13.8 mph - N/A   Partly Cloudy